CZ-4B DEB, 46471

Orbit data source: Space-Track

CZ-4B DEB, 46471 is space debris in LEO originally from a launch on Mon, 21 Sep 2020 UTC launched from the Jiuquan Satellite Launch Center, China (JSC). Debris objects in space refer to the collection of defunct objects orbiting the Earth. Examples of debris include non-operational satellites, rocket bodies, and fragments generated from explosions, collisions, or faulty payload assembly.

Loading next visibility...
Identifier
46471, 2020-066C
Orbit
LEO
Country
Flag of CNCN / PRC
Related business
Manufacturer
SAST
Mission
Spacecraft
Bus & Motor
Unknown
Mass
Unknown
Launch date (UTC)
2020-09-21 (6 years ago)
Launch vehicle
Unknown
Launch site
Jiuquan Satellite Launch Center, China (JSC)
Object type
Payload
Rocket body
Debris
Shape & HBR
Unknown shape, 0.1 m
Radar Cross Section
Medium (>0.1 m² and <1 m²)

Expand to show TLE details & history
Last TLE update: 2 days ago

TLE from 2 days ago
0 CZ-4B DEB
1 46471U 20066C   26171.01626136  .00000018  00000-0  81670-4 0  9993
2 46471  66.0749 175.7064 0033619 195.8621 164.1401 13.89468980291342
Epoch: 2026-06-20T00:23Z
TLE epoch observation values (Epoch: 2026-06-20T00:23:24.981Z)
Latitude
-0.00005°
Longitude
-98.38465°
Altitude
956.155 km
Speed
7.362 km/s
True Right ascension
11h 42m 49s
True Declination
0° 00' 00"
Sunlit
Object was in daylight at epoch
Visualization orbit readout
Latitude
Unknown
Longitude
Unknown
Altitude
Unknown
Speed
Unknown
Apparent Right ascension
Unknown
Apparent Declination
Unknown
Sunlit
N/A
Visualization observer readout
Local Sidereal Time
21:24:13
Azimuth
Unknown
Elevation
Unknown
Doppler factor
Unknown
Orbital elements
Apogee altitude
953.536 km
Perigee altitude
904.405 km
Semi-major axis
7,307.108 km
Eccentricity
0.00336
Inclination
66.0749°
RAAN
175.7064°
Arg. of periapsis
195.8621°
True anomaly
164.24496°
Mean anomaly
164.1401°
Eccentric anomaly
164.19257°
Mean motion
3.47476 °/min
Orbital period
103.6 mins
BSTAR
0.00008167
Loading maneuver chart data...
Computing Atmospheric mass density...
Loading historical data...
Loading historical data...
Loading historical data...
Loading historical data...
Loading historical data...
Loading historical data...
Loading historical data...
Other satellites on launch #66 in the year 2020 (2020-09-21 UTC)

Documentation

Showing up to 5 results
|